Regional Weather Roundup
Issued by NWS

Home | Current Version | Previous Version | Graphics & Text | Print | Product List | Glossary On
Versions: 1 2 3 4 5 6 7 8 9 10 11 12 13 14 15 16 17 18 19 20 21 22 23 24 25 26 27 28 29 30 31 32 33 34 35 36 37 38 39 40 41 42 43 44 45 46 47 48 49 50
590
ASUS43 KBIS 040302
RWRND

NORTH DAKOTA REGIONAL WEATHER ROUNDUP
NATIONAL WEATHER SERVICE BISMARCK ND
900 PM CST SAT DEC 03 2016

NOTE: "FAIR" INDICATES FEW OR NO CLOUDS BELOW 12,000 FEET WITH NO
SIGNIFICANT WEATHER AND/OR OBSTRUCTIONS TO VISIBILITY.


NDZ001>003-009>011-017-040400-
NORTHWEST NORTH DAKOTA

CITY           SKY/WX    TMP DP  RH WIND       PRES   REMARKS
WILLISTON      CLOUDY    34  31  88 W13       29.74S
MINOT          LGT SNOW  28  26  92 S9        29.73F FOG     WCI  19
MINOT AFB      CLOUDY    27  25  93 S9        29.72F WCI  17
$$

NDZ018>021-031>035-040>046-040400-
SOUTHWEST NORTH DAKOTA

CITY           SKY/WX    TMP DP  RH WIND       PRES   REMARKS
BISMARCK       CLOUDY    26  25  96 S3        29.81F FOG
DICKINSON      MOCLDY    32  28  85 W17       29.75S
GARRISON         N/A     31  30  96 SW10      29.75F
HETTINGER ARPT CLOUDY    30  23  75 W17       29.82S WCI  18
$$

NDZ004>008-012>016-024-026-027-054-040400-
NORTHEAST NORTH DAKOTA

CITY           SKY/WX    TMP DP  RH WIND       PRES   REMARKS
GRAND FORKS    FLURRIES  31  28  89 S14       29.95F
GRND FRKS AFB  CLOUDY    31  29  93 S17       29.92F WCI  19
DEVILS LAKE    CLOUDY    31  30  96 SE16      29.84F WCI  20
$$

NDZ022-023-025-028>030-036>039-047>053-040400-
SOUTHEAST NORTH DAKOTA

CITY           SKY/WX    TMP DP  RH WIND       PRES   REMARKS
FARGO          CLOUDY    34  30  85 S16G25    29.96F
JAMESTOWN      CLOUDY    33  32  96 S14       29.84F
$$





USA.gov is the U.S. government's official web portal to all federal, state and local government web resources and services.